Wind_Speed
9 9 9 9 10 10 10 11 11 11 11 11 10 10 10 9 7 5 6 7 8 8 7 7 8 8 10 11 13 15 16 16 17 17 16 16 15 14 12 11 9 7 5 4 3 1 0 2 4
8 8 8 9 9 9 9 9 9 10 10 10 10 10 10 9 7 5 4 5 6 6 6 5 5 6 7 9 10 12 13 14 15 15 16 16 15 15 13 12 11 9 8 6 4 3 1 1 3
6 7 8 9 10 8 8 7 7 7 7 8 8 9 9 9 7 5 3 3 4 5 4 4 3 4 5 6 7 9 10 11 12 13 14 14 15 15 14 13 13 12 10 8 6 4 3 1 1
4 4 6 8 9 9 7 6 6 6 6 7 7 8 9 9 8 6 3 2 2 3 3 3 2 2 2 3 4 6 7 8 9 10 11 12 13 13 14 14 13 13 12 11 8 6 4 2 1
5 4 5 6 7 7 6 4 4 4 6 6 7 7 8 8 7 5 3 1 1 2 2 2 2 2 1 1 2 3 4 5 6 7 8 9 10 11 12 12 13 13 13 12 10 8 6 4 2
6 6 6 6 6 6 5 4 3 4 4 5 6 6 7 7 7 5 3 1 1 2 3 2 2 2 2 2 1 1 2 3 4 5 6 7 7 8 9 10 11 12 12 12 11 10 8 6 4
7 7 7 6 6 6 5 4 2 1 2 3 4 5 5 5 6 5 4 2 2 3 4 4 4 4 4 4 3 3 3 3 3 4 5 5 6 7 7 7 8 10 10 11 11 11 9 7 6
8 9 8 8 8 7 7 4 2 1 3 4 5 6 5 5 5 5 5 3 2 3 5 6 6 6 6 5 5 5 4 4 5 5 5 6 6 6 6 6 6 7 8 9 9 10 10 8 6
9 9 9 10 10 10 11 9 6 6 6 7 8 9 9 8 8 7 6 6 5 5 5 6 7 8 8 8 8 7 7 7 7 7 7 7 7 7 6 6 6 6 6 7 7 7 8 8 7
10 10 11 12 13 14 15 14 13 12 11 11 12 12 12 12 12 12 11 9 8 8 7 8 8 9 10 10 10 10 10 9 9 10 10 10 9 9 9 8 8 7 6 6 6 6 6 6 6
11 12 13 15 16 17 18 18 18 18 17 17 16 16 16 16 16 16 16 15 14 12 11 10 10 10 11 12 12 12 12 12 12 12 12 12 12 12 12 12 11 10 9 8 7 6 6 5 5
14 14 16 18 20 21 23 23 23 23 23 23 22 21 19 19 18 19 19 19 18 17 16 15 14 13 13 13 14 14 14 14 14 14 14 14 14 15 15 14 14 13 13 12 10 9 8 7 7
17 18 20 21 23 24 26 27 27 28 28 27 26 25 23 22 21 21 21 21 21 20 20 19 18 18 17 16 16 16 16 16 16 16 16 16 16 16 17 17 17 16 16 15 14 12 11 10 10
21 22 23 24 25 27 28 29 30 30 31 30 30 29 28 26 25 25 24 24 23 23 22 22 22 22 21 20 20 19 19 19 18 18 17 17 18 18 18 18 18 18 18 17 17 15 14 14 13
24 25 26 27 28 30 31 32 33 33 33 33 33 33 32 31 30 30 29 29 28 27 27 26 25 24 23 24 23 22 23 22 21 20 20 20 20 20 20 20 20 20 20 19 18 17 17 16 16
26 27 28 29 30 32 33 34 34 35 35 35 35 35 36 35 35 35 35 34 33 33 33 31 29 29 27 26 26 26 26 25 24 24 23 22 22 22 23 23 23 23 22 22 21 19 18 18 19
27 28 29 30 31 32 33 34 34 35 35 36 37 37 38 39 40 40 40 40 40 39 38 37 35 33 33 31 30 29 28 28 26 26 26 25 25 25 25 26 26 25 25 24 23 22 21 21 21
27 28 29 29 29 30 31 32 33 34 35 36 37 39 40 41 42 44 44 44 44 43 43 42 41 40 38 36 34 33 32 30 29 28 27 27 27 28 28 29 29 29 28 27 26 26 24 23 23
25 25 26 27 27 28 29 30 31 32 33 34 36 38 40 42 44 45 46 47 46 46 46 46 46 44 43 40 39 37 35 34 33 31 30 30 30 30 30 32 31 32 31 31 30 29 28 26 25
23 24 25 26 26 27 28 30 32 33 34 35 37 38 40 41 43 45 46 47 48 48 47 47 48 48 47 45 42 41 39 38 36 35 34 33 32 31 30 31 31 31 32 32 32 31 30 29 28
22 23 24 25 26 27 29 31 31 33 34 36 37 39 40 41 42 43 45 46 46 47 47 47 47 47 48 46 45 44 42 40 39 38 37 37 36 34 33 32 31 31 31 32 33 32 31 31 30
23 23 23 24 26 27 29 30 30 31 33 35 37 38 39 39 40 41 42 43 43 44 44 43 44 44 45 44 44 44 43 42 42 41 40 40 39 36 35 34 32 32 31 30 30 32 31 32 32
21 22 22 23 25 26 26 27 27 28 30 32 34 35 35 36 36 36 37 37 37 38 39 40 40 41 42 42 43 43 43 42 42 42 42 42 41 39 37 35 33 29 27 27 28 31 32 31 31
20 20 20 21 22 22 22 24 25 25 26 27 28 29 30 30 30 29 28 28 28 29 30 32 34 35 37 38 39 40 41 41 41 42 42 41 40 38 37 35 33 30 28 27 26 26 28 30 30
19 18 18 18 18 18 19 21 22 22 22 21 22 23 23 23 21 20 19 19 20 20 21 24 26 29 30 32 34 35 36 37 38 38 38 38 37 36 34 33 32 30 28 27 27 28 27 28 28
16 15 15 15 16 17 18 19 19 19 19 20 19 19 18 16 15 14 12 11 12 12 14 17 20 22 24 25 27 29 31 32 33 34 34 34 34 34 33 33 32 32 32 31 30 30 28 29 29
13 13 13 14 15 15 16 16 17 18 18 18 18 16 15 14 12 9 8 7 7 8 10 10 13 16 18 20 22 24 26 27 28 29 30 31 32 32 33 33 34 35 35 35 33 32 31 31 31
14 14 14 14 14 14 14 15 16 16 16 17 17 16 15 13 12 10 8 8 8 7 6 6 6 9 12 14 15 17 19 21 23 25 27 29 30 31 32 34 34 35 36 36 35 34 34 34 34
15 15 15 14 14 14 15 16 17 16 17 17 17 17 16 16 14 13 12 11 10 9 9 8 7 6 6 7 8 10 12 15 17 19 22 23 25 27 29 31 31 33 33 34 34 34 34 33 33
16 17 16 15 14 15 15 16 17 18 18 18 19 19 18 18 17 17 15 15 13 13 12 12 11 10 9 7 5 4 5 7 9 11 13 15 17 19 21 22 24 26 27 28 29 30 31 31 31
Wind_Direction
37 33 30 31 35 34 25 21 27 33 38 44 52 55 55 55 58 70 83 89 93 95 92 87 82 80 79 79 78 76 75 72 69 67 65 63 62 61 60 61 61 60 58 55 56 63 191 227 235
36 36 33 30 27 21 22 23 32 36 34 31 36 43 46 47 47 54 76 89 95 99 99 96 88 82 79 78 76 74 72 69 65 62 60 58 57 55 54 54 53 52 50 46 44 47 57 229 239
30 34 34 34 29 19 22 27 36 40 39 31 27 32 39 38 38 41 62 89 99 102 106 110 104 90 80 76 73 70 67 64 62 59 57 54 52 51 49 48 48 47 46 43 39 39 46 31 263
13 25 33 34 28 24 26 32 37 42 41 35 26 26 29 32 31 32 48 89 107 112 113 124 128 118 92 76 68 62 59 56 55 54 52 50 48 46 45 45 44 44 43 43 40 38 36 25 332
334 354 18 27 25 20 23 31 45 46 42 37 30 33 30 31 26 20 28 82 132 145 146 152 168 179 176 98 58 47 44 44 44 44 43 41 39 40 40 41 41 42 42 42 42 41 39 33 37
322 332 350 7 17 14 20 35 53 46 43 32 22 25 26 29 22 12 3 21 201 206 207 204 204 215 227 241 262 322 352 7 16 20 22 23 25 29 31 34 37 39 41 42 43 43 44 44 51
311 316 325 339 352 2 13 19 49 41 16 359 350 352 0 7 9 2 345 324 249 231 228 227 223 226 235 244 252 265 286 306 323 337 348 356 3 10 17 21 25 30 34 38 40 42 44 48 53
300 307 314 321 324 327 333 328 317 280 280 300 308 314 320 326 333 335 328 314 283 251 241 236 232 232 236 241 245 252 263 275 286 297 310 323 333 344 353 0 6 13 19 26 32 37 40 44 47
289 295 300 301 302 305 307 298 276 269 276 279 287 294 300 302 303 303 302 296 287 269 252 245 240 238 239 242 244 247 253 261 268 277 285 293 301 309 320 329 335 342 352 2 13 24 28 32 35
277 282 284 284 285 287 289 289 280 280 280 279 281 285 290 292 293 291 288 283 277 271 262 254 247 244 242 243 244 245 248 252 259 266 272 277 282 287 293 299 305 310 316 323 336 353 5 11 16
272 274 274 274 275 277 278 281 280 281 283 283 283 282 282 283 286 286 284 280 275 269 264 260 256 252 249 247 245 245 246 248 253 259 265 269 273 277 281 284 287 290 293 295 298 308 320 331 340
276 276 276 275 275 277 278 278 278 277 279 280 281 280 279 277 277 278 277 277 275 271 266 261 257 254 252 251 250 249 248 249 251 256 260 264 268 271 275 277 279 281 283 283 282 285 290 296 304
280 282 282 281 280 279 278 277 276 276 278 278 278 279 277 272 271 269 269 269 269 268 264 261 256 253 250 248 247 247 249 250 251 254 257 261 265 268 271 274 276 277 278 278 276 276 278 279 282
282 282 282 280 279 277 277 277 276 276 276 276 275 275 274 270 267 263 260 258 258 257 256 254 252 250 248 245 245 245 245 247 248 251 255 259 262 266 269 272 273 275 275 274 274 273 274 275 276
281 281 281 280 279 278 277 276 276 276 276 275 274 273 271 270 266 262 260 257 253 251 249 247 246 246 245 243 243 244 245 245 246 249 253 257 260 263 266 269 270 272 273 273 273 272 272 273 274
281 281 282 282 281 281 280 280 280 279 279 277 275 272 269 267 265 263 261 259 256 252 249 247 245 242 242 242 241 241 245 246 246 249 251 254 258 261 265 267 268 269 270 271 271 271 270 270 271
283 284 284 284 284 284 283 284 284 283 282 279 276 273 270 267 265 264 263 262 259 256 253 250 247 245 242 242 243 242 244 245 247 250 251 254 257 260 262 265 267 267 266 266 268 269 269 268 268
288 289 289 289 288 287 287 287 287 286 284 282 279 276 274 271 268 266 264 263 261 258 256 253 251 249 246 246 246 247 247 248 250 254 256 257 260 261 263 265 266 265 264 263 264 265 267 268 268
290 290 290 290 290 289 290 290 290 289 286 283 281 279 277 275 272 269 266 264 262 260 258 255 254 252 249 249 248 249 250 250 251 254 258 259 260 261 264 265 266 264 261 261 261 261 263 265 266
291 291 290 290 291 291 291 291 291 290 288 286 284 282 279 278 275 272 270 267 265 262 259 257 256 253 251 250 250 250 251 253 254 254 257 259 262 263 265 268 268 266 262 259 257 257 259 262 264
295 296 295 295 296 295 295 294 294 292 290 288 286 284 281 278 277 275 273 270 267 265 262 260 259 256 253 252 251 252 253 255 256 256 256 257 261 263 265 267 269 268 267 260 256 254 255 258 260
302 300 298 298 298 298 298 297 298 296 294 292 290 289 286 283 281 278 275 272 270 267 265 264 263 259 256 253 252 251 252 253 254 256 258 259 260 262 264 267 270 271 268 263 257 252 251 252 254
307 304 302 301 301 301 302 300 302 301 299 297 296 294 291 287 286 284 281 275 271 269 266 264 263 262 259 256 255 254 254 253 253 254 256 258 259 260 263 265 268 272 274 269 262 256 252 250 251
312 309 307 305 305 306 308 308 309 309 307 304 302 299 297 294 290 288 285 277 273 271 266 262 261 259 257 256 255 254 254 254 254 253 255 257 259 261 262 263 266 271 273 274 269 264 260 254 250
320 318 315 314 315 316 316 317 319 320 319 318 315 312 308 302 296 293 289 282 277 274 267 262 262 258 255 253 254 254 254 255 255 255 255 256 258 259 260 261 264 267 269 273 271 269 266 262 256
331 327 325 325 325 325 326 327 329 332 333 333 333 330 328 322 313 307 302 292 287 280 272 269 265 260 257 255 255 256 256 256 257 256 255 255 256 258 260 262 264 267 270 270 269 267 263 261 260
347 343 338 336 335 337 339 340 341 343 347 348 348 347 344 344 343 335 327 317 311 301 291 283 274 265 262 260 261 261 261 260 259 257 256 256 257 259 261 263 265 267 268 267 266 266 263 259 258
359 353 350 349 353 355 357 359 0 1 3 6 8 7 4 5 10 11 14 9 355 347 342 332 314 292 279 272 270 268 267 266 263 260 259 260 261 262 263 264 265 266 266 265 263 262 260 257 255
5 3 1 2 7 11 12 13 15 16 18 21 20 20 23 27 31 36 35 33 35 31 32 26 14 1 335 306 286 278 275 272 269 266 264 263 263 264 264 264 265 264 263 262 261 259 257 255 254
14 14 15 18 24 25 23 24 25 27 28 28 28 30 33 38 45 48 45 42 41 39 38 37 33 29 25 21 359 325 301 289 280 275 271 268 266 265 265 265 265 263 262 260 258 257 255 253 252
Height
5912 5912 5912 5913 5913 5913 5912 5911 5911 5910 5910 5910 5910 5910 5911 5912 5912 5914 5912 5910 5911 5911 5911 5912 5912 5912 5911 5911 5910 5909 5908 5908 5908 5907 5907 5906 5906 5905 5905 5905 5905 5904 5904 5904 5904 5904 5905 5905 5906
5913 5913 5914 5914 5913 5913 5913 5912 5912 5912 5911 5911 5911 5912 5912 5912 5912 5912 5912 5911 5911 5912 5912 5913 5913 5913 5913 5912 5912 5911 5910 5910 5910 5909 5909 5908 5908 5907 5907 5906 5906 5905 5905 5905 5905 5905 5905 5905 5906
5914 5914 5915 5914 5914 5914 5915 5913 5913 5913 5913 5912 5912 5913 5913 5913 5913 5913 5913 5913 5912 5913 5913 5914 5914 5914 5914 5913 5913 5913 5912 5912 5912 5911 5911 5910 5909 5909 5908 5908 5907 5906 5906 5905 5905 5905 5905 5905 5905
5915 5916 5916 5916 5915 5915 5915 5915 5914 5914 5914 5914 5913 5914 5914 5914 5913 5913 5913 5913 5913 5913 5914 5914 5914 5914 5914 5914 5914 5914 5913 5913 5913 5913 5912 5912 5911 5911 5910 5909 5909 5908 5907 5906 5906 5905 5905 5905 5905
5916 5916 5916 5916 5916 5916 5916 5916 5916 5916 5915 5915 5914 5914 5914 5914 5914 5914 5913 5913 5913 5914 5914 5914 5914 5914 5914 5914 5914 5914 5914 5914 5914 5914 5914 5913 5913 5912 5912 5911 5910 5910 5909 5908 5907 5907 5906 5906 5905
5917 5916 5916 5916 5917 5917 5917 5917 5917 5916 5916 5915 5915 5915 5914 5914 5914 5914 5914 5913 5913 5913 5914 5914 5914 5914 5914 5914 5914 5914 5914 5914 5914 5914 5914 5914 5914 5914 5913 5913 5912 5911 5910 5909 5909 5908 5907 5907 5906
5917 5917 5916 5916 5917 5917 5918 5917 5917 5917 5916 5916 5915 5915 5914 5914 5914 5914 5913 5913 5912 5912 5913 5913 5913 5913 5913 5914 5914 5914 5914 5914 5914 5914 5914 5914 5914 5914 5914 5913 5913 5912 5911 5911 5910 5909 5908 5908 5908
5916 5917 5916 5916 5916 5916 5917 5917 5917 5916 5916 5916 5915 5914 5914 5914 5914 5913 5913 5912 5912 5911 5911 5911 5912 5912 5912 5912 5912 5913 5913 5913 5913 5913 5913 5913 5913 5913 5913 5913 5913 5912 5912 5911 5911 5910 5910 5909 5908
5915 5917 5915 5915 5915 5915 5915 5915 5915 5915 5915 5915 5915 5914 5913 5912 5912 5912 5912 5911 5911 5910 5910 5910 5910 5910 5910 5910 5911 5911 5911 5911 5911 5911 5911 5912 5912 5912 5912 5912 5912 5912 5912 5911 5911 5911 5910 5910 5909
5914 5914 5914 5914 5914 5913 5912 5912 5913 5913 5913 5913 5913 5912 5911 5910 5910 5910 5910 5909 5909 5908 5908 5907 5907 5907 5907 5908 5908 5908 5909 5909 5909 5909 5909 5909 5910 5910 5910 5910 5911 5911 5911 5911 5910 5910 5910 5910 5909
5912 5912 5912 5911 5911 5911 5910 5910 5910 5910 5910 5910 5910 5910 5909 5908 5908 5907 5907 5907 5906 5906 5905 5905 5904 5904 5904 5905 5905 5905 5906 5906 5906 5906 5906 5906 5907 5907 5907 5908 5908 5909 5909 5909 5909 5909 5909 5909 5909
5910 5910 5910 5909 5909 5908 5907 5907 5906 5906 5906 5906 5906 5906 5906 5906 5905 5904 5903 5903 5902 5902 5901 5901 5901 5901 5901 5901 5902 5902 5902 5902 5902 5902 5902 5903 5903 5904 5904 5904 5905 5905 5906 5906 5907 5907 5907 5908 5908
5908 5907 5907 5906 5906 5904 5903 5902 5902 5901 5901 5901 5901 5901 5901 5901 5901 5900 5900 5899 5898 5897 5897 5896 5897 5897 5898 5898 5898 5898 5898 5898 5898 5898 5899 5899 5900 5900 5900 5901 5901 5902 5902 5903 5904 5904 5905 5905 5906
5904 5904 5903 5902 5901 5899 5898 5897 5897 5896 5896 5895 5895 5895 5895 5895 5895 5895 5894 5893 5893 5892 5891 5891 5891 5891 5892 5892 5893 5893 5894 5894 5894 5894 5894 5895 5895 5896 5897 5897 5897 5898 5898 5899 5900 5901 5901 5902 5902
5900 5899 5898 5896 5895 5893 5892 5891 5890 5889 5889 5889 5889 5888 5888 5888 5888 5888 5887 5887 5886 5886 5885 5885 5884 5885 5885 5885 5886 5887 5887 5888 5889 5889 5890 5890 5891 5891 5892 5893 5893 5894 5894 5894 5895 5896 5897 5898 5899
5896 5894 5893 5891 5889 5887 5888 5885 5883 5883 5882 5882 5881 5880 5880 5879 5879 5879 5879 5879 5879 5879 5879 5878 5878 5878 5878 5878 5878 5879 5880 5881 5882 5883 5884 5884 5885 5886 5887 5887 5888 5889 5889 5889 5890 5891 5892 5893 5894
5891 5889 5887 5886 5883 5881 5880 5878 5877 5875 5875 5873 5872 5871 5871 5870 5869 5869 5868 5869 5869 5870 5870 5870 5870 5871 5871 5871 5871 5872 5873 5874 5875 5876 5878 5878 5879 5880 5880 5881 5882 5883 5883 5884 5885 5886 5887 5888 5889
5886 5883 5881 5879 5877 5876 5874 5872 5870 5868 5867 5865 5863 5861 5860 5859 5858 5858 5857 5857 5858 5858 5859 5860 5861 5862 5863 5864 5865 5865 5866 5868 5868 5869 5870 5872 5872 5873 5873 5874 5875 5876 5877 5878 5879 5880 5881 5882 5883
5881 5878 5876 5874 5872 5870 5868 5865 5863 5861 5859 5856 5854 5852 5849 5848 5846 5845 5845 5845 5845 5846 5847 5848 5850 5852 5854 5855 5857 5858 5859 5861 5862 5862 5863 5864 5865 5866 5867 5867 5868 5868 5869 5870 5872 5873 5874 5876 5877
5876 5874 5871 5869 5867 5864 5861 5859 5856 5853 5850 5848 5845 5842 5839 5837 5835 5833 5832 5832 5832 5833 5834 5835 5838 5840 5843 5845 5847 5849 5851 5853 5854 5856 5857 5857 5858 5859 5859 5860 5860 5861 5861 5863 5864 5866 5867 5869 5870
5871 5869 5866 5863 5860 5858 5855 5852 5849 5845 5842 5839 5835 5832 5828 5826 5824 5822 5820 5819 5819 5820 5821 5823 5825 5828 5831 5834 5837 5840 5842 5844 5846 5848 5849 5850 5850 5851 5852 5853 5853 5854 5854 5855 5856 5858 5860 5861 5863
5866 5863 5860 5857 5854 5852 5849 5845 5842 5838 5834 5830 5825 5821 5818 5815 5812 5810 5808 5807 5807 5808 5809 5811 5813 5816 5819 5822 5826 5829 5832 5836 5838 5839 5840 5842 5843 5844 5845 5846 5846 5847 5847 5848 5849 5850 5852 5854 5855
5861 5858 5855 5852 5849 5846 5843 5840 5837 5832 5827 5822 5817 5813 5808 5805 5802 5799 5797 5796 5796 5797 5798 5800 5802 5805 5808 5811 5815 5818 5822 5825 5828 5830 5831 5833 5834 5836 5838 5839 5840 5840 5841 5842 5843 5843 5845 5846 5848
5857 5854 5851 5848 5845 5842 5838 5835 5831 5826 5821 5816 5811 5805 5800 5797 5793 5791 5789 5787 5788 5788 5788 5790 5792 5794 5797 5801 5804 5808 5812 5815 5818 5820 5822 5824 5826 5828 5830 5832 5833 5834 5835 5835 5835 5836 5837 5838 5839
5854 5851 5847 5844 5841 5838 5834 5830 5827 5821 5816 5811 5806 5800 5795 5791 5787 5785 5782 5781 5781 5781 5781 5782 5784 5786 5788 5792 5795 5798 5802 5805 5808 5810 5813 5815 5817 5819 5821 5823 5825 5826 5827 5828 5828 5829 5830 5830 5831
5850 5848 5845 5842 5838 5835 5831 5827 5823 5817 5812 5807 5802 5797 5792 5788 5784 5782 5780 5778 5777 5777 5777 5778 5779 5780 5782 5785 5788 5790 5793 5796 5799 5801 5804 5806 5809 5811 5813 5815 5816 5818 5819 5820 5821 5821 5821 5822 5823
5849 5846 5844 5841 5836 5833 5829 5825 5821 5815 5811 5806 5801 5796 5792 5787 5783 5781 5779 5777 5776 5776 5775 5775 5776 5776 5778 5780 5782 5784 5786 5788 5791 5793 5796 5798 5800 5802 5804 5806 5807 5808 5809 5810 5811 5812 5812 5814 5815
5850 5846 5843 5839 5835 5832 5828 5824 5821 5815 5811 5806 5801 5797 5792 5788 5784 5782 5780 5778 5776 5776 5775 5774 5774 5774 5775 5776 5777 5778 5780 5782 5784 5786 5788 5790 5792 5793 5795 5796 5797 5798 5799 5800 5801 5802 5803 5805 5806
5850 5846 5842 5838 5835 5832 5828 5827 5821 5816 5811 5807 5803 5799 5794 5790 5787 5784 5782 5780 5778 5777 5776 5775 5774 5773 5773 5773 5774 5774 5775 5776 5778 5779 5780 5782 5783 5785 5786 5786 5787 5788 5789 5790 5791 5792 5794 5795 5797
5851 5847 5843 5840 5836 5832 5829 5829 5822 5817 5813 5809 5805 5801 5797 5793 5790 5788 5785 5783 5781 5780 5778 5777 5776 5775 5774 5773 5773 5772 5773 5773 5774 5774 5775 5775 5776 5777 5778 5778 5779 5779 5780 5781 5781 5783 5784 5786 5788